owner,sensor,date,latitude,longitude,air_pressure(mBar),qcFlag 
WAVCIS,ioos:station:WAVCIS:CSI16:1,2011-01-01T00:00:00Z,29.4012,-89.0355,1008.29,11111222 
WAVCIS,ioos:station:WAVCIS:CSI16:1,2011-01-01T01:00:00Z,29.4012,-89.0355,1008.3,11111222 
WAVCIS,ioos:station:WAVCIS:CSI16:1,2011-01-01T02:00:00Z,29.4012,-89.0355,1008.56,11111222 
WAVCIS,ioos:station:WAVCIS:CSI16:1,2011-01-01T03:00:00Z,29.4012,-89.0355,1008.96,11111222 
WAVCIS,ioos:station:WAVCIS:CSI16:1,2011-01-01T04:00:00Z,29.4012,-89.0355,1009.16,11111222 
WAVCIS,ioos:station:WAVCIS:CSI16:1,2011-01-01T05:00:00Z,29.4012,-89.0355,1009.03,11111222 
WAVCIS,ioos:station:WAVCIS:CSI16:1,2011-01-01T06:00:00Z,29.4012,-89.0355,1008.43,11111222 
WAVCIS,ioos:station:WAVCIS:CSI16:1,2011-01-01T07:00:00Z,29.4012,-89.0355,1008.21,11111222 
WAVCIS,ioos:station:WAVCIS:CSI16:1,2011-01-01T08:00:00Z,29.4012,-89.0355,1007.92,11111222 
WAVCIS,ioos:station:WAVCIS:CSI16:1,2011-01-01T09:00:00Z,29.4012,-89.0355,1007.99,11111222 
WAVCIS,ioos:station:WAVCIS:CSI16:1,2011-01-01T10:00:00Z,29.4012,-89.0355,1007.83,11111222 
WAVCIS,ioos:station:WAVCIS:CSI16:1,2011-01-01T11:00:00Z,29.4012,-89.0355,1007.96,11111222 
WAVCIS,ioos:station:WAVCIS:CSI16:1,2011-01-01T12:00:00Z,29.4012,-89.0355,1008.16,11111222 
WAVCIS,ioos:station:WAVCIS:CSI16:1,2011-01-01T13:00:00Z,29.4012,-89.0355,1008.25,11111222 
WAVCIS,ioos:station:WAVCIS:CSI16:1,2011-01-01T14:00:00Z,29.4012,-89.0355,1008.47,11111222 
WAVCIS,ioos:station:WAVCIS:CSI16:1,2011-01-01T15:00:00Z,29.4012,-89.0355,1009.53,11111222 
WAVCIS,ioos:station:WAVCIS:CSI16:1,2011-01-01T16:00:00Z,29.4012,-89.0355,1010.25,11111222 
WAVCIS,ioos:station:WAVCIS:CSI16:1,2011-01-01T17:00:00Z,29.4012,-89.0355,1010.14,11111222 
WAVCIS,ioos:station:WAVCIS:CSI16:1,2011-01-01T18:00:00Z,29.4012,-89.0355,1009.29,11111222 
WAVCIS,ioos:station:WAVCIS:CSI16:1,2011-01-01T19:00:00Z,29.4012,-89.0355,1008.7,11111222 
WAVCIS,ioos:station:WAVCIS:CSI16:1,2011-01-01T20:00:00Z,29.4012,-89.0355,1008.69,11111222 
WAVCIS,ioos:station:WAVCIS:CSI16:1,2011-01-01T21:00:00Z,29.4012,-89.0355,1009.2,11111222 
WAVCIS,ioos:station:WAVCIS:CSI16:1,2011-01-01T22:00:00Z,29.4012,-89.0355,1009.49,11111222 
WAVCIS,ioos:station:WAVCIS:CSI16:1,2011-01-01T23:00:00Z,29.4012,-89.0355,1010.12,11111222 
WAVCIS,ioos:station:WAVCIS:CSI16:1,2011-01-02T00:00:00Z,29.4012,-89.0355,1011.23,11111222 
WAVCIS,ioos:station:WAVCIS:CSI16:1,2011-01-02T01:00:00Z,29.4012,-89.0355,1012.54,11111222 
WAVCIS,ioos:station:WAVCIS:CSI16:1,2011-01-02T02:00:00Z,29.4012,-89.0355,1012.23,11111222 
WAVCIS,ioos:station:WAVCIS:CSI16:1,2011-01-02T03:00:00Z,29.4012,-89.0355,1012.38,11111222 
WAVCIS,ioos:station:WAVCIS:CSI16:1,2011-01-02T04:00:00Z,29.4012,-89.0355,1012.5,11111222 
WAVCIS,ioos:station:WAVCIS:CSI16:1,2011-01-02T05:00:00Z,29.4012,-89.0355,1012.89,11111222 
WAVCIS,ioos:station:WAVCIS:CSI16:1,2011-01-02T06:00:00Z,29.4012,-89.0355,1012.74,11111222 
WAVCIS,ioos:station:WAVCIS:CSI16:1,2011-01-02T07:00:00Z,29.4012,-89.0355,1012.71,11111222 
WAVCIS,ioos:station:WAVCIS:CSI16:1,2011-01-02T08:00:00Z,29.4012,-89.0355,1013.2,11111222 
WAVCIS,ioos:station:WAVCIS:CSI16:1,2011-01-02T09:00:00Z,29.4012,-89.0355,1013.61,11111222 
WAVCIS,ioos:station:WAVCIS:CSI16:1,2011-01-02T10:00:00Z,29.4012,-89.0355,1013.67,11111222 
WAVCIS,ioos:station:WAVCIS:CSI16:1,2011-01-02T11:00:00Z,29.4012,-89.0355,1014.37,11111222 
WAVCIS,ioos:station:WAVCIS:CSI16:1,2011-01-02T12:00:00Z,29.4012,-89.0355,1014.77,11111222 
WAVCIS,ioos:station:WAVCIS:CSI16:1,2011-01-02T13:00:00Z,29.4012,-89.0355,1015.62,11111222 
WAVCIS,ioos:station:WAVCIS:CSI16:1,2011-01-02T14:00:00Z,29.4012,-89.0355,1016.66,11111222 
WAVCIS,ioos:station:WAVCIS:CSI16:1,2011-01-02T15:00:00Z,29.4012,-89.0355,1018.1,11111222 
WAVCIS,ioos:station:WAVCIS:CSI16:1,2011-01-02T16:00:00Z,29.4012,-89.0355,1018.72,11111222 
WAVCIS,ioos:station:WAVCIS:CSI16:1,2011-01-02T17:00:00Z,29.4012,-89.0355,1019.46,11111222 
WAVCIS,ioos:station:WAVCIS:CSI16:1,2011-01-02T18:00:00Z,29.4012,-89.0355,1019.21,11111222 
WAVCIS,ioos:station:WAVCIS:CSI16:1,2011-01-02T19:00:00Z,29.4012,-89.0355,1018.22,11111222 
WAVCIS,ioos:station:WAVCIS:CSI16:1,2011-01-02T20:00:00Z,29.4012,-89.0355,1017.18,11111222 
WAVCIS,ioos:station:WAVCIS:CSI16:1,2011-01-02T21:00:00Z,29.4012,-89.0355,1016.95,11111222 
WAVCIS,ioos:station:WAVCIS:CSI16:1,2011-01-02T22:00:00Z,29.4012,-89.0355,1017.28,11111222 
WAVCIS,ioos:station:WAVCIS:CSI16:1,2011-01-02T23:00:00Z,29.4012,-89.0355,1017.4,11111222 
WAVCIS,ioos:station:WAVCIS:CSI16:1,2011-01-03T00:00:00Z,29.4012,-89.0355,1017.61,11111222 
WAVCIS,ioos:station:WAVCIS:CSI16:1,2011-01-03T01:00:00Z,29.4012,-89.0355,1018.01,11111222 
WAVCIS,ioos:station:WAVCIS:CSI16:1,2011-01-03T02:00:00Z,29.4012,-89.0355,1018.36,11111222 
WAVCIS,ioos:station:WAVCIS:CSI16:1,2011-01-03T03:00:00Z,29.4012,-89.0355,1018.78,11111222 
WAVCIS,ioos:station:WAVCIS:CSI16:1,2011-01-03T04:00:00Z,29.4012,-89.0355,1018.71,11111222 
WAVCIS,ioos:station:WAVCIS:CSI16:1,2011-01-03T05:00:00Z,29.4012,-89.0355,1018.77,11111222 
WAVCIS,ioos:station:WAVCIS:CSI16:1,2011-01-03T06:00:00Z,29.4012,-89.0355,1018.14,11111222 
WAVCIS,ioos:station:WAVCIS:CSI16:1,2011-01-03T07:00:00Z,29.4012,-89.0355,1017.76,11111222 
WAVCIS,ioos:station:WAVCIS:CSI16:1,2011-01-03T08:00:00Z,29.4012,-89.0355,1017.63,11111222 
WAVCIS,ioos:station:WAVCIS:CSI16:1,2011-01-03T09:00:00Z,29.4012,-89.0355,1017.31,11111222 
WAVCIS,ioos:station:WAVCIS:CSI16:1,2011-01-03T10:00:00Z,29.4012,-89.0355,1017.13,11111222 
WAVCIS,ioos:station:WAVCIS:CSI16:1,2011-01-03T11:00:00Z,29.4012,-89.0355,1017.2,11111222 
WAVCIS,ioos:station:WAVCIS:CSI16:1,2011-01-03T12:00:00Z,29.4012,-89.0355,1017.42,11111222 
WAVCIS,ioos:station:WAVCIS:CSI16:1,2011-01-03T13:00:00Z,29.4012,-89.0355,1017.88,11111222 
WAVCIS,ioos:station:WAVCIS:CSI16:1,2011-01-03T14:00:00Z,29.4012,-89.0355,1018.44,11111222 
WAVCIS,ioos:station:WAVCIS:CSI16:1,2011-01-03T15:00:00Z,29.4012,-89.0355,1019.1,11111222 
WAVCIS,ioos:station:WAVCIS:CSI16:1,2011-01-03T16:00:00Z,29.4012,-89.0355,1020.1,11111222 
WAVCIS,ioos:station:WAVCIS:CSI16:1,2011-01-03T17:00:00Z,29.4012,-89.0355,1019.89,11111222 
WAVCIS,ioos:station:WAVCIS:CSI16:1,2011-01-03T18:00:00Z,29.4012,-89.0355,1019.22,11111222 
WAVCIS,ioos:station:WAVCIS:CSI16:1,2011-01-03T19:00:00Z,29.4012,-89.0355,1017.52,11111222 
WAVCIS,ioos:station:WAVCIS:CSI16:1,2011-01-03T20:00:00Z,29.4012,-89.0355,1016.66,11111222 
WAVCIS,ioos:station:WAVCIS:CSI16:1,2011-01-03T21:00:00Z,29.4012,-89.0355,1015.99,11111222 
WAVCIS,ioos:station:WAVCIS:CSI16:1,2011-01-03T22:00:00Z,29.4012,-89.0355,1016.23,11111222 
WAVCIS,ioos:station:WAVCIS:CSI16:1,2011-01-03T23:00:00Z,29.4012,-89.0355,1016.19,11111222 
WAVCIS,ioos:station:WAVCIS:CSI16:1,2011-01-04T00:00:00Z,29.4012,-89.0355,1016.28,11111222 
WAVCIS,ioos:station:WAVCIS:CSI16:1,2011-01-04T01:00:00Z,29.4012,-89.0355,1016.19,11111222 
WAVCIS,ioos:station:WAVCIS:CSI16:1,2011-01-04T02:00:00Z,29.4012,-89.0355,1016.18,11111222 
WAVCIS,ioos:station:WAVCIS:CSI16:1,2011-01-04T03:00:00Z,29.4012,-89.0355,1016.2,11111222 
WAVCIS,ioos:station:WAVCIS:CSI16:1,2011-01-04T04:00:00Z,29.4012,-89.0355,1016.13,11111222 
WAVCIS,ioos:station:WAVCIS:CSI16:1,2011-01-04T05:00:00Z,29.4012,-89.0355,1015.79,11111222 
WAVCIS,ioos:station:WAVCIS:CSI16:1,2011-01-04T06:00:00Z,29.4012,-89.0355,1015.47,11111222 
WAVCIS,ioos:station:WAVCIS:CSI16:1,2011-01-04T07:00:00Z,29.4012,-89.0355,1015.29,11111222 
WAVCIS,ioos:station:WAVCIS:CSI16:1,2011-01-04T08:00:00Z,29.4012,-89.0355,1014.88,11111222 
WAVCIS,ioos:station:WAVCIS:CSI16:1,2011-01-04T09:00:00Z,29.4012,-89.0355,1014.54,11111222 
WAVCIS,ioos:station:WAVCIS:CSI16:1,2011-01-04T10:00:00Z,29.4012,-89.0355,1014.45,11111222 
WAVCIS,ioos:station:WAVCIS:CSI16:1,2011-01-04T11:00:00Z,29.4012,-89.0355,1014.45,11111222 
WAVCIS,ioos:station:WAVCIS:CSI16:1,2011-01-04T12:00:00Z,29.4012,-89.0355,1014.61,11111222 
WAVCIS,ioos:station:WAVCIS:CSI16:1,2011-01-04T13:00:00Z,29.4012,-89.0355,1015.2,11111222 
WAVCIS,ioos:station:WAVCIS:CSI16:1,2011-01-04T14:00:00Z,29.4012,-89.0355,1015.61,11111222 
WAVCIS,ioos:station:WAVCIS:CSI16:1,2011-01-04T15:00:00Z,29.4012,-89.0355,1015.84,11111222 
WAVCIS,ioos:station:WAVCIS:CSI16:1,2011-01-04T16:00:00Z,29.4012,-89.0355,1016.51,11111222 
WAVCIS,ioos:station:WAVCIS:CSI16:1,2011-01-04T17:00:00Z,29.4012,-89.0355,1016.15,11111222 
WAVCIS,ioos:station:WAVCIS:CSI16:1,2011-01-04T18:00:00Z,29.4012,-89.0355,1015.62,11111222 
WAVCIS,ioos:station:WAVCIS:CSI16:1,2011-01-04T19:00:00Z,29.4012,-89.0355,1015.22,11111222 
WAVCIS,ioos:station:WAVCIS:CSI16:1,2011-01-04T20:00:00Z,29.4012,-89.0355,1014.58,11111222 
WAVCIS,ioos:station:WAVCIS:CSI16:1,2011-01-04T21:00:00Z,29.4012,-89.0355,1013.95,11111222 
WAVCIS,ioos:station:WAVCIS:CSI16:1,2011-01-04T22:00:00Z,29.4012,-89.0355,1013.56,11111222 
WAVCIS,ioos:station:WAVCIS:CSI16:1,2011-01-04T23:00:00Z,29.4012,-89.0355,1013.88,11111222 
WAVCIS,ioos:station:WAVCIS:CSI16:1,2011-01-05T00:00:00Z,29.4012,-89.0355,1013.83,11111222 
WAVCIS,ioos:station:WAVCIS:CSI16:1,2011-01-05T01:00:00Z,29.4012,-89.0355,1013.83,11111222 
WAVCIS,ioos:station:WAVCIS:CSI16:1,2011-01-05T02:00:00Z,29.4012,-89.0355,1013.8,11111222 
WAVCIS,ioos:station:WAVCIS:CSI16:1,2011-01-05T03:00:00Z,29.4012,-89.0355,1013.94,11111222 
WAVCIS,ioos:station:WAVCIS:CSI16:1,2011-01-05T04:00:00Z,29.4012,-89.0355,1013.61,11111222 
WAVCIS,ioos:station:WAVCIS:CSI16:1,2011-01-05T05:00:00Z,29.4012,-89.0355,1013.18,11111222 
WAVCIS,ioos:station:WAVCIS:CSI16:1,2011-01-05T06:00:00Z,29.4012,-89.0355,1012.57,11111222 
WAVCIS,ioos:station:WAVCIS:CSI16:1,2011-01-05T07:00:00Z,29.4012,-89.0355,1012.02,11111222 
WAVCIS,ioos:station:WAVCIS:CSI16:1,2011-01-05T08:00:00Z,29.4012,-89.0355,1011.07,11111222 
WAVCIS,ioos:station:WAVCIS:CSI16:1,2011-01-05T09:00:00Z,29.4012,-89.0355,1010.12,11111222 
WAVCIS,ioos:station:WAVCIS:CSI16:1,2011-01-05T10:00:00Z,29.4012,-89.0355,1009.58,11111222 
WAVCIS,ioos:station:WAVCIS:CSI16:1,2011-01-05T11:00:00Z,29.4012,-89.0355,1009.08,11111222 
WAVCIS,ioos:station:WAVCIS:CSI16:1,2011-01-05T12:00:00Z,29.4012,-89.0355,1008.86,11111222 
WAVCIS,ioos:station:WAVCIS:CSI16:1,2011-01-05T13:00:00Z,29.4012,-89.0355,1008.56,11111222 
WAVCIS,ioos:station:WAVCIS:CSI16:1,2011-01-05T14:00:00Z,29.4012,-89.0355,1008.74,11111222 
WAVCIS,ioos:station:WAVCIS:CSI16:1,2011-01-05T15:00:00Z,29.4012,-89.0355,1009.56,11111222 
WAVCIS,ioos:station:WAVCIS:CSI16:1,2011-01-05T16:00:00Z,29.4012,-89.0355,1010.15,11111222 
WAVCIS,ioos:station:WAVCIS:CSI16:1,2011-01-05T17:00:00Z,29.4012,-89.0355,1009.47,11111222 
WAVCIS,ioos:station:WAVCIS:CSI16:1,2011-01-05T18:00:00Z,29.4012,-89.0355,1008.57,11111222 
WAVCIS,ioos:station:WAVCIS:CSI16:1,2011-01-05T19:00:00Z,29.4012,-89.0355,1007.48,11111222 
WAVCIS,ioos:station:WAVCIS:CSI16:1,2011-01-05T20:00:00Z,29.4012,-89.0355,1006.752,11111222 
WAVCIS,ioos:station:WAVCIS:CSI16:1,2011-01-05T21:00:00Z,29.4012,-89.0355,1006.536,11111222 
WAVCIS,ioos:station:WAVCIS:CSI16:1,2011-01-05T22:00:00Z,29.4012,-89.0355,1006.27,11111222 
WAVCIS,ioos:station:WAVCIS:CSI16:1,2011-01-05T23:00:00Z,29.4012,-89.0355,1006.22,11111222 
WAVCIS,ioos:station:WAVCIS:CSI16:1,2011-01-06T00:00:00Z,29.4012,-89.0355,1005.913,11111222 
WAVCIS,ioos:station:WAVCIS:CSI16:1,2011-01-06T01:00:00Z,29.4012,-89.0355,1005.965,11111222 
WAVCIS,ioos:station:WAVCIS:CSI16:1,2011-01-06T02:00:00Z,29.4012,-89.0355,1006.049,11111222 
WAVCIS,ioos:station:WAVCIS:CSI16:1,2011-01-06T03:00:00Z,29.4012,-89.0355,1006.522,11111222 
WAVCIS,ioos:station:WAVCIS:CSI16:1,2011-01-06T04:00:00Z,29.4012,-89.0355,1006.654,11111222 
WAVCIS,ioos:station:WAVCIS:CSI16:1,2011-01-06T05:00:00Z,29.4012,-89.0355,1006.662,11111222 
WAVCIS,ioos:station:WAVCIS:CSI16:1,2011-01-06T06:00:00Z,29.4012,-89.0355,1006.315,11111222 
WAVCIS,ioos:station:WAVCIS:CSI16:1,2011-01-06T07:00:00Z,29.4012,-89.0355,1006.61,11111222 
WAVCIS,ioos:station:WAVCIS:CSI16:1,2011-01-06T08:00:00Z,29.4012,-89.0355,1007.09,11111222 
WAVCIS,ioos:station:WAVCIS:CSI16:1,2011-01-06T09:00:00Z,29.4012,-89.0355,1006.988,11111222 
WAVCIS,ioos:station:WAVCIS:CSI16:1,2011-01-06T10:00:00Z,29.4012,-89.0355,1006.773,11111222 
WAVCIS,ioos:station:WAVCIS:CSI16:1,2011-01-06T11:00:00Z,29.4012,-89.0355,1006.975,11111222 
WAVCIS,ioos:station:WAVCIS:CSI16:1,2011-01-06T12:00:00Z,29.4012,-89.0355,1006.968,11111222 
WAVCIS,ioos:station:WAVCIS:CSI16:1,2011-01-06T13:00:00Z,29.4012,-89.0355,1007.64,11111222 
WAVCIS,ioos:station:WAVCIS:CSI16:1,2011-01-06T14:00:00Z,29.4012,-89.0355,1008.63,11111222 
WAVCIS,ioos:station:WAVCIS:CSI16:1,2011-01-06T15:00:00Z,29.4012,-89.0355,1009.36,11111222 
WAVCIS,ioos:station:WAVCIS:CSI16:1,2011-01-06T16:00:00Z,29.4012,-89.0355,1010.67,11111222 
WAVCIS,ioos:station:WAVCIS:CSI16:1,2011-01-06T17:00:00Z,29.4012,-89.0355,1010.73,11111222 
WAVCIS,ioos:station:WAVCIS:CSI16:1,2011-01-06T18:00:00Z,29.4012,-89.0355,1009.79,11111222 
WAVCIS,ioos:station:WAVCIS:CSI16:1,2011-01-06T19:00:00Z,29.4012,-89.0355,1008.84,11111222 
WAVCIS,ioos:station:WAVCIS:CSI16:1,2011-01-06T21:00:00Z,29.4012,-89.0355,1007.25,11111222 
WAVCIS,ioos:station:WAVCIS:CSI16:1,2011-01-06T22:00:00Z,29.4012,-89.0355,1006.934,11111222 
WAVCIS,ioos:station:WAVCIS:CSI16:1,2011-01-06T23:00:00Z,29.4012,-89.0355,1006.89,11111222 
WAVCIS,ioos:station:WAVCIS:CSI16:1,2011-01-07T00:00:00Z,29.4012,-89.0355,1007.1,11111222 
WAVCIS,ioos:station:WAVCIS:CSI16:1,2011-01-07T01:00:00Z,29.4012,-89.0355,1007.29,11111222 
WAVCIS,ioos:station:WAVCIS:CSI16:1,2011-01-07T02:00:00Z,29.4012,-89.0355,1008.09,11111222 
WAVCIS,ioos:station:WAVCIS:CSI16:1,2011-01-07T03:00:00Z,29.4012,-89.0355,1008.13,11111222 
WAVCIS,ioos:station:WAVCIS:CSI16:1,2011-01-07T04:00:00Z,29.4012,-89.0355,1007.84,11111222 
WAVCIS,ioos:station:WAVCIS:CSI16:1,2011-01-07T05:00:00Z,29.4012,-89.0355,1007.99,11111222 
WAVCIS,ioos:station:WAVCIS:CSI16:1,2011-01-07T06:00:00Z,29.4012,-89.0355,1007.68,11111222 
WAVCIS,ioos:station:WAVCIS:CSI16:1,2011-01-07T07:00:00Z,29.4012,-89.0355,1007.29,11111222 
WAVCIS,ioos:station:WAVCIS:CSI16:1,2011-01-07T08:00:00Z,29.4012,-89.0355,1007.02,11111222 
WAVCIS,ioos:station:WAVCIS:CSI16:1,2011-01-07T09:00:00Z,29.4012,-89.0355,1006.326,11111222 
WAVCIS,ioos:station:WAVCIS:CSI16:1,2011-01-07T10:00:00Z,29.4012,-89.0355,1006.255,11111222 
WAVCIS,ioos:station:WAVCIS:CSI16:1,2011-01-07T11:00:00Z,29.4012,-89.0355,1005.898,11111222 
WAVCIS,ioos:station:WAVCIS:CSI16:1,2011-01-07T12:00:00Z,29.4012,-89.0355,1005.788,11111222 
WAVCIS,ioos:station:WAVCIS:CSI16:1,2011-01-07T13:00:00Z,29.4012,-89.0355,1005.875,11111222 
WAVCIS,ioos:station:WAVCIS:CSI16:1,2011-01-07T14:00:00Z,29.4012,-89.0355,1006.096,11111222 
WAVCIS,ioos:station:WAVCIS:CSI16:1,2011-01-07T15:00:00Z,29.4012,-89.0355,1006.633,11111222 
WAVCIS,ioos:station:WAVCIS:CSI16:1,2011-01-07T16:00:00Z,29.4012,-89.0355,1006.4,11111222 
WAVCIS,ioos:station:WAVCIS:CSI16:1,2011-01-07T17:00:00Z,29.4012,-89.0355,1005.464,11111222 
WAVCIS,ioos:station:WAVCIS:CSI16:1,2011-01-07T18:00:00Z,29.4012,-89.0355,1004.407,11111222 
WAVCIS,ioos:station:WAVCIS:CSI16:1,2011-01-07T19:00:00Z,29.4012,-89.0355,1003.109,11111222 
WAVCIS,ioos:station:WAVCIS:CSI16:1,2011-01-07T20:00:00Z,29.4012,-89.0355,1002.193,11111222 
WAVCIS,ioos:station:WAVCIS:CSI16:1,2011-01-07T21:00:00Z,29.4012,-89.0355,1001.604,11111222 
WAVCIS,ioos:station:WAVCIS:CSI16:1,2011-01-07T22:00:00Z,29.4012,-89.0355,1001.317,11111222 
WAVCIS,ioos:station:WAVCIS:CSI16:1,2011-01-07T23:00:00Z,29.4012,-89.0355,1001.27,11111222 
WAVCIS,ioos:station:WAVCIS:CSI16:1,2011-01-08T00:00:00Z,29.4012,-89.0355,1001.413,11111222 
WAVCIS,ioos:station:WAVCIS:CSI16:1,2011-01-08T01:00:00Z,29.4012,-89.0355,1001.577,11111222 
WAVCIS,ioos:station:WAVCIS:CSI16:1,2011-01-08T02:00:00Z,29.4012,-89.0355,1001.851,11111222 
WAVCIS,ioos:station:WAVCIS:CSI16:1,2011-01-08T03:00:00Z,29.4012,-89.0355,1002.122,11111222 
WAVCIS,ioos:station:WAVCIS:CSI16:1,2011-01-08T04:00:00Z,29.4012,-89.0355,1002.1,11111222 
WAVCIS,ioos:station:WAVCIS:CSI16:1,2011-01-08T05:00:00Z,29.4012,-89.0355,1001.948,11111222 
WAVCIS,ioos:station:WAVCIS:CSI16:1,2011-01-08T06:00:00Z,29.4012,-89.0355,1002.145,11111222 
WAVCIS,ioos:station:WAVCIS:CSI16:1,2011-01-08T07:00:00Z,29.4012,-89.0355,1002.061,11111222 
WAVCIS,ioos:station:WAVCIS:CSI16:1,2011-01-08T08:00:00Z,29.4012,-89.0355,1002.322,11111222 
WAVCIS,ioos:station:WAVCIS:CSI16:1,2011-01-08T09:00:00Z,29.4012,-89.0355,1002.78,11111222 
WAVCIS,ioos:station:WAVCIS:CSI16:1,2011-01-08T10:00:00Z,29.4012,-89.0355,1003.157,11111222 
WAVCIS,ioos:station:WAVCIS:CSI16:1,2011-01-08T11:00:00Z,29.4012,-89.0355,1003.778,11111222 
WAVCIS,ioos:station:WAVCIS:CSI16:1,2011-01-08T12:00:00Z,29.4012,-89.0355,1004.243,11111222 
WAVCIS,ioos:station:WAVCIS:CSI16:1,2011-01-08T13:00:00Z,29.4012,-89.0355,1004.966,11111222 
WAVCIS,ioos:station:WAVCIS:CSI16:1,2011-01-08T14:00:00Z,29.4012,-89.0355,1005.69,11111222 
WAVCIS,ioos:station:WAVCIS:CSI16:1,2011-01-08T15:00:00Z,29.4012,-89.0355,1006.877,11111222 
WAVCIS,ioos:station:WAVCIS:CSI16:1,2011-01-08T16:00:00Z,29.4012,-89.0355,1008.15,11111222 
WAVCIS,ioos:station:WAVCIS:CSI16:1,2011-01-08T17:00:00Z,29.4012,-89.0355,1008.66,11111222 
WAVCIS,ioos:station:WAVCIS:CSI16:1,2011-01-08T18:00:00Z,29.4012,-89.0355,1008.12,11111222 
WAVCIS,ioos:station:WAVCIS:CSI16:1,2011-01-08T19:00:00Z,29.4012,-89.0355,1007.31,11111222 
WAVCIS,ioos:station:WAVCIS:CSI16:1,2011-01-08T20:00:00Z,29.4012,-89.0355,1006.862,11111222 
WAVCIS,ioos:station:WAVCIS:CSI16:1,2011-01-08T21:00:00Z,29.4012,-89.0355,1006.771,11111222 
WAVCIS,ioos:station:WAVCIS:CSI16:1,2011-01-08T22:00:00Z,29.4012,-89.0355,1007.03,11111222 
WAVCIS,ioos:station:WAVCIS:CSI16:1,2011-01-08T23:00:00Z,29.4012,-89.0355,1006.983,11111222 
WAVCIS,ioos:station:WAVCIS:CSI16:1,2011-01-09T00:00:00Z,29.4012,-89.0355,1007.08,11111222 
WAVCIS,ioos:station:WAVCIS:CSI16:1,2011-01-09T01:00:00Z,29.4012,-89.0355,1007.16,11111222 
WAVCIS,ioos:station:WAVCIS:CSI16:1,2011-01-09T02:00:00Z,29.4012,-89.0355,1007.38,11111222 
WAVCIS,ioos:station:WAVCIS:CSI16:1,2011-01-09T03:00:00Z,29.4012,-89.0355,1007.97,11111222 
WAVCIS,ioos:station:WAVCIS:CSI16:1,2011-01-09T04:00:00Z,29.4012,-89.0355,1008.23,11111222 
WAVCIS,ioos:station:WAVCIS:CSI16:1,2011-01-09T05:00:00Z,29.4012,-89.0355,1008.01,11111222 
WAVCIS,ioos:station:WAVCIS:CSI16:1,2011-01-09T06:00:00Z,29.4012,-89.0355,1008.4,11111222 
WAVCIS,ioos:station:WAVCIS:CSI16:1,2011-01-09T07:00:00Z,29.4012,-89.0355,1008.54,11111222 
WAVCIS,ioos:station:WAVCIS:CSI16:1,2011-01-09T08:00:00Z,29.4012,-89.0355,1007.36,11111222 
WAVCIS,ioos:station:WAVCIS:CSI16:1,2011-01-09T09:00:00Z,29.4012,-89.0355,1006.825,11111222 
WAVCIS,ioos:station:WAVCIS:CSI16:1,2011-01-09T10:00:00Z,29.4012,-89.0355,1007.53,11111222 
WAVCIS,ioos:station:WAVCIS:CSI16:1,2011-01-09T11:00:00Z,29.4012,-89.0355,1007.67,11111222 
WAVCIS,ioos:station:WAVCIS:CSI16:1,2011-01-09T12:00:00Z,29.4012,-89.0355,1007.31,11111222 
WAVCIS,ioos:station:WAVCIS:CSI16:1,2011-01-09T13:00:00Z,29.4012,-89.0355,1007.32,11111222 
WAVCIS,ioos:station:WAVCIS:CSI16:1,2011-01-09T14:00:00Z,29.4012,-89.0355,1010.01,11111222 
WAVCIS,ioos:station:WAVCIS:CSI16:1,2011-01-09T15:00:00Z,29.4012,-89.0355,1010.03,11111222 
WAVCIS,ioos:station:WAVCIS:CSI16:1,2011-01-09T16:00:00Z,29.4012,-89.0355,1010.22,11111222 
WAVCIS,ioos:station:WAVCIS:CSI16:1,2011-01-09T17:00:00Z,29.4012,-89.0355,1009.78,11111222 
WAVCIS,ioos:station:WAVCIS:CSI16:1,2011-01-09T18:00:00Z,29.4012,-89.0355,1007.61,11111222 
WAVCIS,ioos:station:WAVCIS:CSI16:1,2011-01-09T19:00:00Z,29.4012,-89.0355,1006.949,11111222 
WAVCIS,ioos:station:WAVCIS:CSI16:1,2011-01-09T20:00:00Z,29.4012,-89.0355,1006.309,11111222 
WAVCIS,ioos:station:WAVCIS:CSI16:1,2011-01-09T21:00:00Z,29.4012,-89.0355,1005.208,11111222 
WAVCIS,ioos:station:WAVCIS:CSI16:1,2011-01-09T22:00:00Z,29.4012,-89.0355,1004.262,11111222 
WAVCIS,ioos:station:WAVCIS:CSI16:1,2011-01-09T23:00:00Z,29.4012,-89.0355,1002.408,11111222 
WAVCIS,ioos:station:WAVCIS:CSI16:1,2011-01-10T00:00:00Z,29.4012,-89.0355,1002.638,11111222 
WAVCIS,ioos:station:WAVCIS:CSI16:1,2011-01-10T01:00:00Z,29.4012,-89.0355,1003.017,11111222 
WAVCIS,ioos:station:WAVCIS:CSI16:1,2011-01-10T02:00:00Z,29.4012,-89.0355,1006.023,11111222 
WAVCIS,ioos:station:WAVCIS:CSI16:1,2011-01-10T03:00:00Z,29.4012,-89.0355,1004.949,11111222 
WAVCIS,ioos:station:WAVCIS:CSI16:1,2011-01-10T04:00:00Z,29.4012,-89.0355,1004.69,11111222 
WAVCIS,ioos:station:WAVCIS:CSI16:1,2011-01-10T05:00:00Z,29.4012,-89.0355,1004.537,11111222 
WAVCIS,ioos:station:WAVCIS:CSI16:1,2011-01-10T06:00:00Z,29.4012,-89.0355,1004.693,11111222 
WAVCIS,ioos:station:WAVCIS:CSI16:1,2011-01-10T07:00:00Z,29.4012,-89.0355,1004.582,11111222 
WAVCIS,ioos:station:WAVCIS:CSI16:1,2011-01-10T08:00:00Z,29.4012,-89.0355,1004.528,11111222 
WAVCIS,ioos:station:WAVCIS:CSI16:1,2011-01-10T09:00:00Z,29.4012,-89.0355,1004.979,11111222 
WAVCIS,ioos:station:WAVCIS:CSI16:1,2011-01-10T10:00:00Z,29.4012,-89.0355,1005.14,11111222 
WAVCIS,ioos:station:WAVCIS:CSI16:1,2011-01-10T11:00:00Z,29.4012,-89.0355,1006.598,11111222 
WAVCIS,ioos:station:WAVCIS:CSI16:1,2011-01-10T12:00:00Z,29.4012,-89.0355,1006.877,11111222 
WAVCIS,ioos:station:WAVCIS:CSI16:1,2011-01-10T13:00:00Z,29.4012,-89.0355,1007.45,11111222 
WAVCIS,ioos:station:WAVCIS:CSI16:1,2011-01-10T14:00:00Z,29.4012,-89.0355,1008.45,11111222 
WAVCIS,ioos:station:WAVCIS:CSI16:1,2011-01-10T15:00:00Z,29.4012,-89.0355,1009.57,11111222 
WAVCIS,ioos:station:WAVCIS:CSI16:1,2011-01-10T16:00:00Z,29.4012,-89.0355,1010.59,11111222 
WAVCIS,ioos:station:WAVCIS:CSI16:1,2011-01-10T17:00:00Z,29.4012,-89.0355,1010.4,11111222 
WAVCIS,ioos:station:WAVCIS:CSI16:1,2011-01-10T18:00:00Z,29.4012,-89.0355,1009.38,11111222 
WAVCIS,ioos:station:WAVCIS:CSI16:1,2011-01-10T19:00:00Z,29.4012,-89.0355,1009.19,11111222 
WAVCIS,ioos:station:WAVCIS:CSI16:1,2011-01-10T20:00:00Z,29.4012,-89.0355,1009.54,11111222 
WAVCIS,ioos:station:WAVCIS:CSI16:1,2011-01-10T21:00:00Z,29.4012,-89.0355,1009.59,11111222 
WAVCIS,ioos:station:WAVCIS:CSI16:1,2011-01-10T22:00:00Z,29.4012,-89.0355,1010.68,11111222 
WAVCIS,ioos:station:WAVCIS:CSI16:1,2011-01-10T23:00:00Z,29.4012,-89.0355,1011.06,11111222 
WAVCIS,ioos:station:WAVCIS:CSI16:1,2011-01-11T00:00:00Z,29.4012,-89.0355,1011.47,11111222 
WAVCIS,ioos:station:WAVCIS:CSI16:1,2011-01-11T01:00:00Z,29.4012,-89.0355,1011.99,11111222 
WAVCIS,ioos:station:WAVCIS:CSI16:1,2011-01-11T02:00:00Z,29.4012,-89.0355,1012.37,11111222 
WAVCIS,ioos:station:WAVCIS:CSI16:1,2011-01-11T03:00:00Z,29.4012,-89.0355,1012.61,11111222 
WAVCIS,ioos:station:WAVCIS:CSI16:1,2011-01-11T04:00:00Z,29.4012,-89.0355,1013.07,11111222 
WAVCIS,ioos:station:WAVCIS:CSI16:1,2011-01-11T05:00:00Z,29.4012,-89.0355,1014.16,11111222 
WAVCIS,ioos:station:WAVCIS:CSI16:1,2011-01-11T06:00:00Z,29.4012,-89.0355,1014.33,11111222 
WAVCIS,ioos:station:WAVCIS:CSI16:1,2011-01-11T07:00:00Z,29.4012,-89.0355,1014.93,11111222 
WAVCIS,ioos:station:WAVCIS:CSI16:1,2011-01-11T08:00:00Z,29.4012,-89.0355,1015.68,11111222 
WAVCIS,ioos:station:WAVCIS:CSI16:1,2011-01-11T09:00:00Z,29.4012,-89.0355,1016.21,11111222 
WAVCIS,ioos:station:WAVCIS:CSI16:1,2011-01-11T10:00:00Z,29.4012,-89.0355,1016.67,11111222 
WAVCIS,ioos:station:WAVCIS:CSI16:1,2011-01-11T11:00:00Z,29.4012,-89.0355,1017.21,11111222 
WAVCIS,ioos:station:WAVCIS:CSI16:1,2011-01-11T12:00:00Z,29.4012,-89.0355,1017.71,11111222 
WAVCIS,ioos:station:WAVCIS:CSI16:1,2011-01-11T13:00:00Z,29.4012,-89.0355,1018.54,11111222 
WAVCIS,ioos:station:WAVCIS:CSI16:1,2011-01-11T14:00:00Z,29.4012,-89.0355,1019.41,11111222 
WAVCIS,ioos:station:WAVCIS:CSI16:1,2011-01-11T15:00:00Z,29.4012,-89.0355,1020.35,11111222 
WAVCIS,ioos:station:WAVCIS:CSI16:1,2011-01-11T16:00:00Z,29.4012,-89.0355,1020.76,11111222 
WAVCIS,ioos:station:WAVCIS:CSI16:1,2011-01-11T17:00:00Z,29.4012,-89.0355,1020.39,11111222 
WAVCIS,ioos:station:WAVCIS:CSI16:1,2011-01-11T18:00:00Z,29.4012,-89.0355,1019.53,11111222 
WAVCIS,ioos:station:WAVCIS:CSI16:1,2011-01-11T19:00:00Z,29.4012,-89.0355,1019.14,11111222 
WAVCIS,ioos:station:WAVCIS:CSI16:1,2011-01-11T20:00:00Z,29.4012,-89.0355,1019.53,11111222 
WAVCIS,ioos:station:WAVCIS:CSI16:1,2011-01-11T21:00:00Z,29.4012,-89.0355,1020.33,11111222 
WAVCIS,ioos:station:WAVCIS:CSI16:1,2011-01-11T22:00:00Z,29.4012,-89.0355,1020.98,11111222 